Regional Weather Roundup
Issued by NWS

Home | Current Version | Previous Version | Text Only | Print | Product List | Glossary On
Versions: 1 2 3 4 5 6 7 8 9 10 11 12 13 14 15 16 17 18 19 20 21 22 23 24 25 26 27 28 29 30 31 32 33 34 35 36 37 38 39 40 41 42 43 44 45 46 47 48 49 50
877
ASUS43 KOAX 090002
RWRNE

WEATHER ROUNDUP FOR NEBRASKA
NATIONAL WEATHER SERVICE OMAHA NE
600 PM CST MON FEB 08 2016

NOTES: SATELLITE DATA IS BEING USED TO AUGMENT CLOUD COVER ABOVE
       12000 FEET.
       "FAIR" INDICATES FEW OR NO CLOUDS BELOW 12,000 FEET WITH NO
       SIGNIFICANT WEATHER AND/OR OBSTRUCTIONS TO VISIBILITY.

  * THESE STATIONS DO NOT REPORT WEATHER SUCH AS RAIN...SNOW OR FOG.

NEZ001>004-019>022-054>056-090100-
NEBRASKA PANHANDLE

CITY           SKY/WX    TMP DP  RH WIND       PRES   REMARKS
SCOTTSBLUFF    CLOUDY    40  29  64 NW9       30.29S WCI  34
6HR MIN TEMP:  36; 6HR MAX TEMP:  42;

ALLIANCE       CLOUDY    32  25  75 W9        30.25S WCI  24
6HR MIN TEMP:  31; 6HR MAX TEMP:  36;

CHADRON        CLOUDY    38  25  59 N6        30.28R WCI  33
6HR MIN TEMP:  36; 6HR MAX TEMP:  42;

SIDNEY         CLOUDY    38  28  67 N15       30.27S WCI  29
6HR MIN TEMP:  33; 6HR MAX TEMP:  39;

$$

NEZ057>060-069>072-079>082-090100-
SOUTHWEST NEBRASKA

CITY           SKY/WX    TMP DP  RH WIND       PRES   REMARKS
NORTH PLATTE   CLOUDY    34  18  52 NW14      30.23F WCI  25
6HR MIN TEMP:  33; 6HR MAX TEMP:  37;

IMPERIAL       CLOUDY    34  19  54 NW9       30.27S WCI  27
6HR MIN TEMP:  33; 6HR MAX TEMP:  38;

MCCOOK         CLEAR     33  19  56 NW7       30.26F WCI  27
6HR MIN TEMP:  33; 6HR MAX TEMP:  37;

$$

NEZ005>010-023>029-035>040-094-090100-
NORTH CENTRAL NEBRASKA

CITY           SKY/WX    TMP DP  RH WIND       PRES   REMARKS
VALENTINE      MOCLDY    32  17  54 NW8       30.23S WCI  25
6HR MIN TEMP:  30; 6HR MAX TEMP:  36;

BROKEN BOW     CLEAR     33  14  45 N17       30.19S WCI  22
6HR MIN TEMP:  33; 6HR MAX TEMP:  37;

ORD            PTCLDY    32  18  56 NW18      30.18S WCI  20
6HR MIN TEMP:  32; 6HR MAX TEMP:  36;

$$

NEZ041-046>049-061>064-073>077-083>087-090100-
SOUTH CENTRAL NEBRASKA

CITY           SKY/WX    TMP DP  RH WIND       PRES   REMARKS
GRAND ISLAND   CLEAR     32  18  56 NW12      30.19R WCI  23
6HR MIN TEMP:  31; 6HR MAX TEMP:  36;

HASTINGS       CLEAR     31  18  58 NW16      30.18S WCI  20
6HR MIN TEMP:  30; 6HR MAX TEMP:  36;

$$

NEZ011>018-030>034-042>045-090100-
NORTHEAST NEBRASKA

CITY           SKY/WX    TMP DP  RH WIND       PRES   REMARKS
NORFOLK        PTCLDY    32  20  61 NW23      30.11S WCI  19
6HR MIN TEMP:  29; 6HR MAX TEMP:  34;

COLUMBUS *     CLEAR     30  14  51 NW16      30.13S WCI  19
TEKAMAH        CLOUDY    28  18  66 N21       30.11R WCI  15
6HR MIN TEMP:  28; 6HR MAX TEMP:  34; 6HR PCP: TRACE;

$$

NEZ050>053-065>068-078-088>093-090100-
SOUTHEAST NEBRASKA

CITY           SKY/WX    TMP DP  RH WIND       PRES   REMARKS
LINCOLN        CLEAR     33  20  58 NW13      30.14S WCI  24
6HR MIN TEMP:  31; 6HR MAX TEMP:  35;

OMAHA EPPLEY   PTCLDY    27  18  69 N15       30.10S WCI  15
6HR MIN TEMP:  27; 6HR MAX TEMP:  30; 6HR PCP: TRACE;

FALLS CITY     CLEAR     31  17  56 NW14G23   30.11S WCI  21
6HR MIN TEMP:  31; 6HR MAX TEMP:  33; 6HR PCP: TRACE;

$$

NEZ044-045-051>053-067-090100-
OMAHA AREA

CITY           SKY/WX    TMP DP  RH WIND       PRES   REMARKS
OMAHA EPPLEY   PTCLDY    27  18  69 N15       30.10S WCI  15
6HR MIN TEMP:  27; 6HR MAX TEMP:  30; 6HR PCP: TRACE;

OFFUTT AFB     CLEAR     29  17  62 NW16G23   30.09F WCI  17
$$




USA.gov is the U.S. government's official web portal to all federal, state and local government web resources and services.